sat.trackr.live / text

‹ back to catalog

STARLINK-37496

NORAD 69297 · 2026-119B

PAYLOAD ACTIVE UNKNOWN

§ Identity

Operator
Country
US
Launch date
2026-05-30
Launch site
AFWTR
Launch vehicle
Mass (kg)
RCS (m²)

Purposes: comms

External: N2YO · Heavens-Above · Gunter

§ Orbital elements

Epoch: 2026-09-20T00:12:15.064416Z

Period
93.91 min
Inclination
97.2832°
Eccentricity
0.0001186
Mean motion
15.33457343 rev/d
Perigee alt
464.7 km
Apogee alt
466.3 km
Semi-major
6,843.6 km
B*
5.1317e-4
RAAN
287.8352°
Arg perigee
92.5094°
Mean anomaly
267.6285°
Rev number
1,859

§ Raw data

STARLINK-374961 69297U 26119B   26263.00850769  .00016535  00000+0  51317-3 0  99952 69297  97.2832 287.8352 0001186  92.5094 267.6285 15.33457343 18593

JSON: /api/v1/satellites/69297 · /tle

For live sub-satellite position, see the globe view (requires WebGL).

§ Visibility from observer

Set your observer location to see the next 7 days of passes ≥ 10°. The values pass through the URL so the page stays shareable.

No JS? Fill the form by hand. The geolocation button needs JavaScript.